Temperature
21 21 20 20 19 20 22 24 24 24 24 24 24 24 23 22 21 20 20 20 20 20 20 20 20 20 20 20 19 19 19 19 19 19 19 19 19 19 19 19 19 19 19 19 19 19 19 18 18
21 21 20 20 20 21 23 24 24 25 24 24 24 23 22 21 20 20 20 20 20 20 20 20 20 20 20 20 20 19 19 19 19 19 19 19 19 19 19 19 19 19 19 19 19 19 19 19 18
21 21 20 20 21 22 24 25 25 25 25 25 24 23 22 21 20 20 20 20 20 20 20 20 20 20 20 20 20 19 19 19 19 19 19 19 19 19 19 19 19 19 19 19 19 19 19 19 18
21 21 21 21 22 24 24 25 25 25 25 25 24 23 22 21 21 21 20 21 20 20 20 20 20 20 20 20 20 19 19 19 19 19 19 19 19 19 19 19 19 19 19 19 18 18 18 18 18
22 21 21 22 23 25 25 25 25 25 24 24 23 22 21 21 21 21 21 21 21 20 20 20 20 20 20 20 20 20 19 19 19 19 19 19 19 19 19 19 19 19 19 18 18 18 18 18 18
22 21 21 22 24 25 25 25 25 24 24 24 23 22 21 21 21 21 21 21 21 21 20 20 20 20 20 20 20 20 19 19 19 19 19 19 19 19 19 19 19 19 19 18 18 18 18 18 18
22 21 22 23 24 25 25 25 25 24 24 24 23 22 21 21 21 21 21 21 21 20 20 20 20 20 20 20 20 19 19 19 19 19 19 19 19 19 19 18 18 18 18 18 18 18 18 18 18
24 22 23 24 24 25 26 26 25 25 24 24 24 22 21 21 21 21 21 21 20 20 20 20 20 20 20 19 19 19 19 19 19 19 19 19 19 19 18 18 18 18 18 18 18 18 18 18 18
24 22 23 24 25 25 26 26 26 25 24 24 24 23 22 22 21 21 20 20 20 20 20 20 20 20 20 19 19 19 19 19 19 19 19 19 19 18 18 18 18 18 18 18 18 18 18 18 18
24 22 24 25 25 26 26 26 26 25 24 23 23 23 22 22 21 21 21 20 20 20 20 20 20 20 19 19 19 19 19 19 19 19 19 19 19 19 19 19 18 18 18 18 18 18 18 18 18
25 24 25 26 26 26 26 26 26 24 23 23 23 22 22 21 21 21 21 21 20 20 20 20 20 20 19 19 19 19 19 19 19 19 19 19 19 19 19 19 19 18 18 18 18 18 18 18 18
26 26 27 27 27 27 26 26 26 25 24 24 23 23 22 22 21 21 21 20 20 20 20 20 20 19 19 19 19 19 19 19 19 19 19 19 19 19 19 19 19 19 18 18 18 18 18 18 18
26 26 27 27 27 27 27 26 26 25 24 24 23 23 22 22 22 21 21 21 20 20 20 20 20 20 19 19 19 19 19 19 19 19 19 19 18 18 19 19 18 18 18 18 18 18 18 18 18
27 27 27 27 27 27 26 26 26 25 24 24 23 22 22 22 22 21 21 21 20 20 20 20 20 20 19 19 19 19 19 19 19 19 18 18 18 18 18 19 18 18 18 18 18 18 18 18 18
27 26 26 27 27 27 26 25 25 25 24 23 23 22 22 22 22 22 21 21 21 20 20 20 20 19 19 19 19 19 19 19 19 18 18 18 18 18 18 18 18 18 18 18 18 18 18 18 18
25 25 25 26 27 27 25 24 25 25 24 23 23 22 22 22 22 22 22 21 21 21 20 20 20 20 19 19 19 19 19 19 18 18 18 18 18 18 18 18 18 18 18 18 18 18 18 18 18
24 24 24 26 27 27 25 24 25 25 24 23 23 22 22 22 22 22 22 21 21 21 20 20 20 20 20 19 19 19 19 18 18 18 18 18 18 18 18 18 18 18 18 18 18 18 18 18 18
24 24 25 26 27 27 25 24 25 25 24 23 23 23 22 22 22 22 22 21 21 21 20 20 20 20 19 19 19 19 18 18 18 18 18 18 18 18 18 18 18 18 18 18 18 18 18 17 17
26 26 26 26 27 26 25 24 24 24 24 23 23 23 22 22 22 22 22 21 21 21 20 20 20 20 19 19 19 19 18 18 18 18 18 18 18 18 18 18 18 18 18 18 18 18 17 17 17
27 26 26 27 27 26 25 24 24 24 24 23 23 22 22 22 22 21 21 21 21 21 20 20 20 20 19 19 19 18 18 18 18 18 18 18 18 18 18 18 18 18 18 17 17 17 17 17 17
27 26 27 27 27 26 25 24 24 24 24 23 23 23 22 22 21 21 21 21 21 20 20 20 20 20 19 19 18 18 18 18 18 18 17 17 18 18 18 18 17 17 17 17 17 17 17 17 17
27 28 28 28 25 24 25 22 23 23 22 22 22 22 22 22 21 21 21 20 20 20 20 20 20 19 19 19 18 18 18 18 18 17 17 17 17 17 17 17 17 17 17 17 17 17 17 17 17
28 29 28 27 25 24 24 22 22 22 22 22 22 22 22 22 21 21 21 21 20 20 20 20 19 19 19 19 18 18 18 18 18 17 17 17 17 17 17 17 17 17 17 17 17 17 17 17 17
29 28 26 24 22 23 23 22 22 21 22 22 22 22 22 22 21 21 21 20 20 20 20 20 19 19 19 18 18 18 18 18 18 17 17 17 17 17 17 17 17 17 17 17 17 17 17 17 17
27 24 23 23 21 22 22 22 21 22 23 22 22 22 22 22 21 21 20 20 20 20 20 20 19 19 18 18 18 18 18 18 18 17 17 17 17 17 17 17 17 17 17 17 17 17 17 17 17
27 24 23 23 22 22 22 22 22 23 23 23 23 22 22 22 21 21 21 21 20 20 20 20 19 19 18 18 18 18 18 17 17 17 17 17 17 17 17 17 17 17 17 17 16 16 16 16 16
27 25 23 21 22 22 22 22 22 23 23 22 22 22 22 22 21 21 21 20 20 20 20 19 19 19 18 18 18 17 17 17 17 17 17 17 17 17 17 17 17 17 17 17 16 16 16 16 16
27 25 22 22 22 22 22 22 21 22 22 22 21 21 21 21 21 21 20 20 20 20 20 19 19 19 19 18 18 17 17 17 17 17 17 17 16 16 16 16 16 16 16 16 16 16 16 16 16
27 26 22 20 20 21 21 21 23 22 22 21 21 21 21 21 21 21 21 20 20 20 19 19 19 19 18 18 18 17 17 17 17 16 16 16 16 16 16 16 16 16 16 16 16 16 16 16 16
26 25 23 22 22 20 20 21 23 22 22 22 22 22 22 22 21 21 21 20 20 20 19 19 19 18 18 18 18 17 17 17 16 16 16 16 16 16 16 16 16 16 16 16 16 16 15 15 15
Wind_Speed
9 7 3 1 1 2 2 2 5 6 6 8 11 11 9 7 5 6 4 9 9 7 8 11 14 14 14 15 15 15 15 15 15 14 14 14 13 13 13 12 12 12 12 11 10 10 9 9 8
6 5 2 0 3 3 2 4 9 8 8 9 11 11 9 8 7 8 5 9 10 9 9 11 14 14 14 15 15 15 15 15 14 14 13 13 13 12 12 12 11 11 11 10 10 9 8 8 7
4 3 1 1 1 3 4 6 10 10 8 7 6 7 6 6 7 5 7 11 9 8 9 12 14 14 14 14 15 15 15 14 14 13 13 13 12 11 11 11 10 10 9 9 9 8 7 7 6
2 1 1 2 1 2 5 7 10 10 8 7 8 7 5 5 5 8 12 12 10 7 9 12 14 14 15 14 14 14 14 14 13 13 12 12 11 10 10 10 10 9 8 7 7 6 6 6 6
1 1 2 2 1 2 5 8 9 9 6 8 10 8 5 4 12 14 13 13 11 8 8 11 14 15 15 15 14 14 14 13 13 12 11 10 9 9 9 9 9 8 7 6 5 5 5 5 5
1 2 2 3 3 3 5 8 10 12 12 11 10 8 4 7 12 13 12 11 11 10 8 10 14 15 15 15 14 14 13 13 12 11 10 9 9 8 8 8 7 7 6 5 4 4 4 4 4
2 2 1 3 3 5 5 7 9 10 10 7 8 7 5 7 10 12 11 11 10 9 7 7 9 12 14 14 14 13 13 12 11 10 9 8 8 7 7 7 6 5 4 3 3 3 3 4 4
2 1 1 2 2 3 5 6 7 10 8 9 7 8 8 9 11 11 11 10 9 7 6 6 6 7 8 11 13 12 12 11 10 9 9 8 7 6 6 6 5 4 3 2 2 3 4 4 4
3 2 2 3 3 3 5 8 5 7 9 5 5 7 12 15 13 12 10 8 7 8 5 5 5 5 6 8 10 10 10 9 9 8 8 7 5 5 5 5 4 3 3 2 3 3 3 3 4
4 4 4 4 4 5 6 8 6 6 8 7 11 12 15 15 14 12 11 9 8 7 6 5 5 5 5 6 6 6 6 6 6 5 5 4 4 4 4 4 3 3 2 3 3 3 4 4 3
4 4 4 4 5 6 6 6 6 9 6 10 15 16 14 13 12 11 10 10 9 8 7 6 6 5 5 4 5 4 4 4 4 5 5 4 4 3 3 2 2 2 3 3 3 4 3 3 2
3 3 3 4 6 7 6 6 6 7 8 11 16 17 14 13 11 11 10 9 8 8 7 6 6 5 5 4 4 4 3 3 3 4 5 4 2 2 1 1 1 1 2 1 2 2 2 2 2
3 2 2 4 5 7 7 8 7 8 11 13 15 15 14 12 10 9 9 9 8 8 7 6 5 5 4 4 3 4 3 3 3 3 4 4 3 2 2 1 1 1 2 1 1 1 1 1 0
2 2 1 3 4 4 8 7 6 9 13 14 14 12 12 12 11 9 9 8 8 8 7 6 6 5 5 4 3 3 3 3 3 3 3 4 4 3 2 1 1 1 2 1 1 1 0 1 0
2 2 2 1 3 3 7 4 6 11 13 13 13 12 11 10 10 10 10 10 9 8 7 7 7 5 5 4 4 4 4 4 3 3 4 4 4 3 2 2 1 2 2 1 0 1 1 1 1
3 2 1 4 4 5 7 5 6 11 13 13 12 12 11 9 9 9 10 9 8 8 8 7 7 6 5 4 3 3 3 4 3 3 3 3 3 3 2 1 1 2 1 1 1 1 1 1 1
2 1 4 5 5 4 5 5 7 10 13 12 12 12 11 9 8 8 10 9 9 9 8 7 6 7 5 4 3 3 3 3 3 3 3 2 3 3 2 1 1 1 1 1 1 1 1 1 1
5 4 4 5 5 5 4 4 8 10 12 13 12 11 10 11 10 10 10 10 9 9 8 7 6 6 5 4 3 2 2 1 2 2 3 3 2 3 2 1 1 1 1 1 1 1 1 0 0
6 6 5 6 5 5 5 5 8 8 8 9 10 10 10 10 9 9 10 10 9 8 8 7 6 5 4 3 2 2 1 1 1 2 3 3 3 3 2 1 1 1 1 1 2 1 1 0 1
5 4 4 3 4 5 4 4 6 9 10 10 11 10 9 8 7 8 8 8 9 9 8 7 6 6 5 4 3 2 2 1 1 1 1 3 3 2 2 2 2 2 2 1 1 2 1 0 1
5 5 5 4 1 2 5 1 2 4 4 6 8 9 10 11 11 9 8 7 8 8 8 8 6 6 5 4 3 2 2 1 1 0 1 2 2 2 1 2 2 1 2 2 2 3 3 2 2
5 6 4 3 2 1 3 2 3 4 4 5 7 8 9 9 10 9 8 8 8 8 7 6 6 5 5 5 4 4 3 2 3 2 2 1 1 2 2 2 2 2 2 2 2 2 2 3 2
6 5 1 1 2 1 2 3 4 2 4 6 6 7 8 9 10 10 9 9 8 8 7 6 5 4 4 4 5 4 3 3 2 1 1 1 1 1 2 2 2 2 2 2 2 1 2 3 3
2 3 5 5 5 1 3 3 4 4 8 7 6 7 8 9 9 9 8 7 6 7 6 6 6 4 4 4 4 4 4 3 2 1 2 1 1 1 1 2 2 2 1 2 2 2 2 2 2
4 5 4 5 5 4 3 3 5 5 6 9 10 9 9 9 9 9 8 8 7 7 7 7 6 5 4 4 4 4 4 4 4 3 3 3 2 1 1 1 1 1 2 2 2 2 2 2 1
3 8 7 5 5 5 2 2 4 2 4 6 9 9 9 8 9 10 10 9 8 8 8 7 7 6 5 4 3 3 3 3 2 3 3 3 3 3 2 2 2 2 1 2 2 2 2 1 2
3 3 8 7 2 0 1 2 3 1 4 5 7 7 8 8 9 9 8 8 8 8 8 8 8 6 6 5 3 2 2 2 2 2 2 2 2 3 2 2 2 2 1 1 2 1 1 1 1
5 6 6 5 3 2 2 3 4 4 4 5 6 6 6 7 7 7 8 7 7 7 7 8 8 7 6 5 4 3 2 2 2 2 2 3 3 2 2 3 3 2 2 2 2 1 1 1 1
1 2 5 4 5 6 4 6 6 10 8 8 7 6 7 8 9 9 8 7 7 6 6 7 7 6 5 5 4 3 3 3 2 2 2 2 1 2 2 2 2 2 2 2 2 2 2 2 1
4 4 6 4 4 5 5 6 4 8 7 9 8 7 7 8 7 7 8 8 8 8 7 6 6 6 6 6 4 4 3 2 2 2 2 2 2 2 2 2 2 2 2 2 2 2 2 2 2
Wind_Direction
177 165 165 187 38 50 67 94 104 86 64 68 77 83 82 67 92 128 159 143 135 139 139 131 127 126 124 123 122 119 117 116 115 116 118 119 120 120 121 124 127 128 128 128 132 133 132 133 134
169 169 189 295 67 71 78 104 96 101 119 106 84 81 76 69 84 113 130 145 139 139 135 132 129 128 128 127 126 123 120 119 118 118 122 122 121 121 124 124 125 126 129 134 139 141 140 139 142
184 191 212 40 81 129 118 114 109 104 103 97 89 69 74 101 108 126 148 143 132 129 133 136 132 132 130 130 130 128 126 125 123 122 124 123 122 124 126 126 126 127 131 138 144 148 149 153 158
166 156 8 56 92 169 138 126 115 106 83 77 92 74 69 99 123 137 140 136 129 127 136 138 136 136 135 134 134 133 131 129 126 125 125 125 125 126 129 128 127 128 132 139 145 151 157 167 175
119 89 41 41 63 98 123 126 120 109 98 92 95 95 80 76 115 129 135 134 132 133 138 140 139 139 139 139 138 138 137 134 131 130 127 128 129 131 135 135 131 134 139 145 152 161 170 179 185
102 70 65 62 48 70 106 117 108 105 112 108 105 106 99 118 121 132 133 134 136 137 138 142 142 142 142 142 140 140 139 138 135 134 133 134 135 137 139 138 138 142 147 155 170 181 189 193 197
108 68 101 93 72 74 108 116 113 123 124 124 124 104 114 127 134 134 131 129 129 132 136 142 145 146 147 146 144 144 144 144 143 142 142 140 139 140 145 150 151 153 158 176 200 212 215 208 209
156 81 67 96 99 97 109 103 121 126 119 127 122 124 147 157 139 123 121 123 127 129 134 134 140 145 149 150 150 149 149 151 150 149 148 146 145 144 150 166 169 171 178 205 240 245 224 216 218
150 101 173 170 160 144 121 102 99 96 111 123 102 124 146 143 133 121 116 113 127 134 139 141 138 142 148 154 156 153 154 155 150 148 147 146 147 154 164 171 178 191 209 236 265 263 231 234 232
151 152 190 179 163 150 131 126 124 101 97 97 102 113 129 132 133 132 134 140 143 144 150 149 150 149 153 160 155 155 154 153 149 149 146 143 152 170 172 183 188 201 232 252 276 284 268 276 278
167 173 161 162 164 148 133 134 127 124 126 141 139 141 142 137 140 142 145 151 154 154 152 154 155 156 154 145 149 152 150 153 154 156 150 145 145 166 181 201 238 254 260 264 283 297 283 278 283
144 176 171 171 163 155 152 139 119 131 157 153 146 147 145 146 151 153 151 152 151 148 155 157 155 153 154 146 156 156 152 163 166 174 163 146 134 144 170 188 238 262 262 281 288 293 295 291 262
121 181 163 160 151 141 140 137 130 131 141 142 140 143 147 148 149 151 151 149 146 150 157 158 152 146 149 145 157 152 163 162 164 160 169 165 159 170 185 206 221 255 265 291 314 318 337 333 331
191 162 126 117 119 141 135 138 123 140 143 142 144 149 154 154 154 147 148 150 151 152 158 159 152 150 140 142 150 152 159 152 147 154 168 173 169 173 183 197 214 243 241 234 240 280 3 350 44
31 46 4 136 129 152 123 124 156 152 145 145 150 152 151 155 153 153 158 158 158 154 149 152 151 146 141 143 150 150 155 145 148 163 171 167 162 162 168 170 203 233 231 220 228 7 48 57 74
39 49 302 257 170 171 131 174 183 156 149 150 155 157 156 161 160 158 157 157 158 153 148 153 152 145 144 142 144 143 150 150 160 172 171 179 184 175 158 157 202 228 213 135 119 81 57 40 46
31 215 242 251 208 172 149 181 185 168 158 160 163 164 163 164 164 162 160 159 160 158 155 151 146 150 150 145 141 135 145 158 165 164 162 175 181 177 168 170 217 201 157 159 147 85 102 65 5
235 240 236 225 214 166 169 177 171 175 164 166 168 168 168 169 173 167 163 162 161 158 154 152 147 151 146 132 119 113 110 148 163 166 171 162 176 172 169 161 176 146 122 109 104 110 73 157 286
219 234 237 241 205 165 183 173 176 171 163 166 171 169 174 178 172 164 163 164 157 155 154 156 152 159 146 130 131 135 156 178 186 188 182 175 183 186 159 139 159 151 143 165 152 138 90 21 54
240 242 254 258 210 165 178 187 175 175 176 173 171 170 169 165 163 167 165 163 160 162 163 162 161 163 162 161 158 157 156 182 193 207 195 189 186 192 172 162 167 158 146 113 117 122 121 248 151
238 215 215 225 235 96 114 38 184 184 157 160 168 172 167 166 166 169 166 164 160 166 172 171 166 165 169 161 133 109 75 40 33 308 231 211 193 182 178 158 160 159 151 170 183 165 157 205 246
250 242 207 188 116 239 138 196 261 188 152 171 181 174 169 168 165 162 160 160 165 169 167 165 165 163 163 157 153 153 163 187 214 215 215 230 201 182 172 155 153 159 157 179 215 180 179 179 228
220 233 202 182 134 62 23 126 275 162 178 198 190 178 165 162 161 162 166 169 166 161 158 158 153 160 163 160 164 164 176 195 201 194 185 200 216 181 165 153 145 146 156 178 197 189 192 191 202
185 39 26 43 64 356 262 152 258 217 202 191 180 172 168 162 159 161 165 159 157 155 156 157 154 160 161 162 162 167 172 172 157 168 180 193 199 203 179 147 149 163 167 188 197 191 187 201 200
85 85 32 2 1 263 267 138 234 233 189 178 176 174 168 165 160 156 160 162 164 163 165 159 155 165 170 165 170 175 176 170 172 181 186 181 183 194 212 183 176 187 199 196 184 178 200 197 188
201 142 156 194 229 271 330 191 255 220 170 162 164 160 154 158 161 166 171 172 172 174 172 164 161 174 180 179 184 185 178 176 187 193 179 184 197 206 206 191 189 202 197 194 177 191 215 200 208
199 193 168 148 177 104 308 303 330 55 110 125 136 140 154 162 164 170 173 171 175 176 178 176 172 174 176 179 174 169 170 178 197 193 175 183 200 201 192 191 196 208 203 187 170 190 220 190 207
170 159 94 112 153 224 269 250 220 204 182 154 143 154 158 155 161 166 173 175 176 175 175 174 173 179 181 178 182 182 181 196 212 184 193 204 212 201 182 192 199 203 200 191 177 192 204 162 213
346 107 116 128 153 161 214 257 222 192 185 169 170 167 162 160 164 168 170 167 165 165 169 175 175 174 175 176 180 179 184 202 202 196 210 209 212 200 203 195 189 196 204 203 190 205 191 194 236
164 184 154 160 227 169 173 253 244 180 172 163 165 168 160 157 154 158 163 161 161 164 167 175 180 178 184 181 175 182 186 190 202 217 222 201 200 205 210 206 193 208 213 209 194 209 216 213 230
Height
1505 1505 1506 1506 1507 1512 1511 1502 1495 1494 1495 1495 1493 1494 1498 1502 1506 1514 1511 1510 1511 1510 1510 1511 1512 1512 1512 1513 1514 1514 1515 1516 1517 1518 1518 1519 1520 1521 1522 1522 1523 1524 1524 1525 1526 1527 1529 1530 1531
1505 1506 1507 1506 1511 1520 1513 1499 1497 1495 1497 1496 1496 1498 1500 1504 1506 1508 1509 1511 1512 1511 1512 1512 1513 1513 1514 1514 1515 1516 1516 1517 1518 1519 1520 1521 1521 1522 1522 1523 1523 1524 1525 1525 1526 1527 1528 1530 1531
1506 1506 1508 1507 1512 1517 1510 1498 1496 1496 1497 1495 1498 1500 1503 1507 1508 1509 1510 1511 1512 1512 1513 1513 1514 1514 1515 1515 1516 1517 1518 1519 1519 1520 1521 1522 1522 1523 1523 1524 1524 1524 1525 1526 1526 1527 1528 1529 1530
1506 1508 1508 1510 1511 1504 1500 1497 1495 1497 1498 1498 1499 1503 1506 1509 1509 1510 1511 1512 1513 1514 1514 1515 1515 1515 1516 1517 1517 1518 1519 1520 1520 1521 1522 1522 1523 1523 1524 1525 1525 1525 1526 1526 1527 1527 1528 1528 1529
1506 1507 1510 1514 1508 1500 1496 1496 1495 1497 1499 1501 1501 1506 1510 1511 1511 1511 1512 1514 1514 1515 1515 1515 1516 1516 1517 1518 1519 1519 1520 1521 1522 1523 1523 1523 1524 1524 1525 1525 1526 1526 1526 1526 1527 1527 1527 1527 1528
1507 1508 1516 1519 1509 1500 1497 1496 1497 1499 1502 1503 1504 1507 1512 1513 1512 1513 1514 1515 1516 1516 1516 1517 1517 1518 1519 1520 1520 1521 1521 1522 1523 1524 1524 1525 1525 1525 1526 1526 1526 1527 1527 1527 1527 1526 1526 1527 1527
1508 1510 1514 1513 1509 1504 1500 1498 1499 1501 1502 1504 1504 1508 1513 1515 1515 1515 1516 1517 1517 1518 1518 1518 1519 1520 1521 1521 1522 1523 1523 1523 1524 1525 1525 1526 1526 1526 1527 1527 1527 1527 1527 1527 1526 1526 1526 1526 1527
1506 1510 1512 1511 1509 1506 1499 1499 1501 1501 1503 1505 1505 1507 1512 1515 1516 1517 1518 1519 1519 1520 1520 1520 1521 1521 1522 1523 1524 1524 1524 1525 1525 1526 1526 1526 1527 1527 1527 1527 1528 1527 1527 1527 1526 1525 1525 1526 1527
1505 1513 1516 1511 1508 1504 1499 1500 1503 1503 1504 1506 1506 1507 1510 1514 1516 1518 1519 1520 1521 1521 1522 1522 1522 1523 1524 1524 1525 1526 1526 1526 1527 1527 1527 1527 1527 1528 1528 1528 1528 1528 1528 1527 1526 1525 1525 1527 1528
1503 1512 1508 1501 1500 1500 1499 1500 1503 1505 1506 1507 1508 1510 1512 1514 1516 1518 1519 1520 1521 1521 1522 1523 1524 1524 1525 1526 1526 1527 1527 1527 1528 1528 1528 1528 1528 1528 1528 1528 1528 1528 1528 1528 1527 1527 1527 1528 1528
1500 1503 1500 1499 1498 1498 1499 1501 1502 1505 1508 1508 1508 1511 1513 1515 1517 1518 1519 1520 1521 1522 1523 1524 1525 1525 1526 1527 1527 1528 1528 1528 1528 1529 1529 1529 1529 1529 1529 1529 1529 1529 1529 1528 1528 1528 1529 1529 1529
1497 1496 1497 1497 1496 1497 1499 1500 1502 1503 1506 1507 1508 1509 1512 1515 1516 1518 1519 1521 1521 1522 1523 1524 1525 1525 1526 1527 1527 1528 1528 1529 1529 1529 1529 1530 1530 1529 1530 1530 1529 1529 1529 1529 1529 1529 1529 1529 1529
1495 1495 1495 1496 1496 1496 1498 1499 1501 1503 1505 1507 1509 1511 1513 1514 1516 1518 1519 1521 1521 1522 1523 1524 1525 1526 1527 1527 1527 1528 1529 1529 1529 1529 1530 1530 1530 1530 1530 1530 1530 1530 1530 1530 1530 1529 1529 1529 1530
1495 1494 1495 1495 1496 1497 1498 1500 1501 1504 1505 1507 1509 1511 1513 1514 1516 1517 1519 1520 1521 1521 1522 1524 1525 1526 1527 1527 1527 1528 1529 1529 1529 1530 1530 1530 1530 1530 1530 1530 1530 1530 1530 1530 1530 1530 1529 1530 1530
1495 1497 1497 1495 1496 1498 1499 1504 1502 1503 1504 1507 1509 1511 1513 1514 1515 1516 1518 1519 1520 1521 1522 1523 1524 1525 1526 1527 1527 1528 1528 1529 1529 1529 1530 1530 1530 1530 1530 1530 1530 1530 1530 1530 1530 1530 1530 1530 1529
1498 1503 1508 1498 1495 1496 1502 1512 1502 1503 1504 1506 1508 1510 1512 1513 1515 1516 1517 1518 1520 1521 1521 1523 1524 1525 1526 1526 1527 1527 1528 1528 1529 1529 1529 1530 1530 1530 1530 1530 1529 1530 1530 1530 1530 1530 1530 1530 1529
1506 1514 1511 1501 1493 1494 1500 1507 1501 1502 1503 1505 1507 1509 1511 1512 1514 1515 1516 1517 1518 1520 1521 1522 1523 1524 1525 1526 1526 1527 1527 1527 1528 1528 1528 1528 1529 1529 1529 1529 1529 1529 1530 1530 1530 1530 1530 1529 1529
1514 1512 1507 1502 1493 1493 1498 1501 1499 1500 1501 1503 1505 1508 1510 1511 1512 1513 1515 1516 1517 1519 1520 1521 1522 1523 1524 1525 1525 1526 1526 1526 1527 1527 1527 1527 1528 1528 1528 1528 1528 1529 1529 1529 1529 1529 1529 1529 1529
1498 1502 1503 1496 1488 1493 1497 1499 1498 1499 1501 1503 1505 1507 1508 1509 1511 1512 1514 1515 1516 1518 1519 1520 1521 1521 1522 1523 1524 1524 1524 1525 1525 1526 1526 1526 1526 1527 1527 1527 1527 1528 1528 1528 1528 1528 1528 1528 1528
1493 1499 1499 1492 1486 1491 1498 1499 1496 1497 1500 1501 1503 1505 1507 1509 1511 1512 1513 1513 1514 1516 1517 1518 1519 1521 1521 1522 1523 1523 1524 1524 1524 1525 1525 1525 1525 1525 1525 1526 1526 1527 1527 1527 1527 1527 1527 1527 1527
1491 1495 1495 1495 1488 1489 1497 1506 1502 1499 1500 1501 1503 1503 1504 1506 1507 1509 1512 1513 1514 1515 1516 1517 1519 1520 1521 1521 1522 1522 1523 1523 1523 1523 1523 1524 1524 1524 1524 1525 1525 1526 1526 1526 1525 1526 1526 1526 1526
1494 1482 1482 1487 1498 1507 1502 1523 1509 1502 1502 1502 1502 1503 1503 1505 1506 1507 1510 1511 1512 1513 1515 1517 1518 1519 1519 1520 1520 1520 1521 1521 1521 1522 1522 1523 1523 1523 1523 1524 1524 1524 1524 1524 1524 1524 1524 1524 1524
1482 1475 1480 1485 1496 1506 1505 1518 1515 1504 1506 1503 1501 1502 1502 1503 1505 1506 1508 1509 1511 1512 1514 1515 1516 1518 1518 1519 1519 1519 1519 1519 1520 1520 1521 1521 1521 1522 1522 1522 1522 1522 1522 1522 1522 1522 1522 1522 1522
1472 1479 1485 1493 1504 1521 1511 1518 1520 1507 1502 1499 1499 1500 1500 1502 1503 1505 1507 1509 1510 1511 1512 1513 1514 1516 1517 1517 1518 1518 1518 1518 1518 1519 1519 1519 1520 1520 1520 1520 1520 1520 1520 1520 1520 1520 1520 1520 1520
1477 1499 1519 1523 1531 1527 1509 1513 1513 1495 1491 1492 1494 1496 1497 1499 1501 1503 1505 1506 1508 1509 1510 1511 1513 1513 1514 1515 1516 1516 1516 1516 1517 1517 1517 1518 1518 1518 1518 1519 1519 1518 1519 1519 1518 1518 1518 1518 1518
1480 1494 1519 1532 1535 1525 1512 1514 1504 1490 1489 1489 1491 1493 1495 1497 1499 1501 1502 1504 1506 1508 1509 1510 1511 1512 1513 1513 1514 1514 1515 1515 1516 1516 1516 1516 1516 1516 1517 1517 1517 1517 1517 1517 1516 1516 1516 1516 1515
1478 1487 1491 1511 1516 1525 1520 1510 1499 1490 1489 1489 1490 1492 1493 1495 1497 1499 1502 1503 1505 1506 1508 1508 1509 1511 1511 1511 1512 1513 1513 1513 1514 1514 1515 1515 1515 1514 1515 1515 1515 1515 1515 1514 1514 1514 1513 1513 1513
1469 1477 1496 1510 1524 1531 1522 1516 1511 1498 1492 1490 1491 1492 1493 1495 1497 1499 1501 1502 1504 1506 1507 1508 1509 1510 1510 1510 1510 1510 1510 1511 1512 1512 1512 1512 1512 1512 1512 1511 1512 1512 1512 1512 1512 1511 1511 1511 1510
1474 1479 1490 1505 1510 1525 1532 1521 1489 1489 1487 1489 1490 1490 1491 1493 1495 1497 1499 1501 1502 1504 1505 1506 1507 1508 1508 1509 1509 1509 1509 1510 1510 1510 1509 1510 1510 1509 1509 1509 1509 1509 1509 1509 1509 1509 1509 1508 1508
1468 1475 1486 1504 1508 1512 1521 1514 1480 1482 1483 1485 1487 1488 1489 1491 1494 1495 1497 1499 1500 1502 1503 1504 1505 1505 1506 1507 1507 1507 1508 1508 1507 1507 1507 1507 1507 1507 1507 1506 1506 1506 1507 1507 1507 1506 1506 1506 1506